TimeEDT,TemperatureF,Dew PointF,Humidity,Sea Level PressureIn,VisibilityMPH,Wind Direction,Wind SpeedMPH,Gust SpeedMPH,PrecipitationIn,Events,Conditions,WindDirDegrees,DateUTC
12:53 AM,82.0,72.0,71,30.10,10.0,ESE,10.4,-,N/A,,Partly Cloudy,110,2013-07-08 04:53:00
1:53 AM,81.0,70.0,69,30.09,10.0,ESE,8.1,-,N/A,,Partly Cloudy,110,2013-07-08 05:53:00
2:53 AM,82.0,72.0,71,30.09,10.0,ESE,9.2,-,N/A,,Scattered Clouds,120,2013-07-08 06:53:00
3:53 AM,81.0,71.1,72,30.09,10.0,ESE,11.5,-,N/A,,Scattered Clouds,110,2013-07-08 07:53:00
4:53 AM,81.0,72.0,74,30.08,10.0,ESE,11.5,-,N/A,,Partly Cloudy,110,2013-07-08 08:53:00
5:53 AM,81.0,71.1,72,30.08,10.0,East,12.7,-,N/A,,Partly Cloudy,100,2013-07-08 09:53:00
6:53 AM,81.0,72.0,74,30.08,10.0,ESE,13.8,-,N/A,,Scattered Clouds,110,2013-07-08 10:53:00
7:53 AM,81.0,72.0,74,30.10,10.0,ESE,12.7,-,N/A,,Partly Cloudy,120,2013-07-08 11:53:00
8:53 AM,84.0,71.1,65,30.11,10.0,East,12.7,-,N/A,,Partly Cloudy,100,2013-07-08 12:53:00
9:53 AM,84.9,72.0,65,30.12,10.0,ESE,13.8,-,N/A,,Partly Cloudy,110,2013-07-08 13:53:00
10:53 AM,84.9,71.1,63,30.14,10.0,East,11.5,-,N/A,,Scattered Clouds,100,2013-07-08 14:53:00
11:53 AM,86.0,71.1,61,30.15,10.0,East,13.8,-,N/A,,Partly Cloudy,80,2013-07-08 15:53:00
12:53 PM,87.1,72.0,61,30.14,10.0,East,17.3,21.9,N/A,,Partly Cloudy,90,2013-07-08 16:53:00
1:53 PM,87.1,71.1,59,30.13,10.0,East,13.8,19.6,N/A,,Clear,90,2013-07-08 17:53:00
2:53 PM,87.1,73.0,63,30.12,10.0,East,13.8,-,N/A,,Scattered Clouds,80,2013-07-08 18:53:00
3:53 PM,84.9,72.0,65,30.11,10.0,East,12.7,-,N/A,,Scattered Clouds,90,2013-07-08 19:53:00
4:53 PM,86.0,72.0,63,30.08,10.0,East,9.2,17.3,N/A,,Scattered Clouds,90,2013-07-08 20:53:00
5:53 PM,84.0,72.0,67,30.08,10.0,East,11.5,-,N/A,,Scattered Clouds,90,2013-07-08 21:53:00
6:53 PM,84.0,70.0,63,30.08,10.0,East,11.5,-,N/A,,Scattered Clouds,90,2013-07-08 22:53:00
7:53 PM,82.9,71.1,67,30.09,10.0,East,10.4,-,N/A,,Partly Cloudy,90,2013-07-08 23:53:00
8:53 PM,81.0,71.1,72,30.09,10.0,ENE,9.2,-,N/A,,Partly Cloudy,60,2013-07-09 00:53:00
9:53 PM,82.0,73.0,74,30.12,10.0,ENE,8.1,-,N/A,,Partly Cloudy,70,2013-07-09 01:53:00
10:53 PM,81.0,72.0,74,30.13,10.0,East,8.1,-,N/A,,Partly Cloudy,80,2013-07-09 02:53:00
11:53 PM,81.0,72.0,74,30.14,10.0,East,9.2,-,N/A,,Partly Cloudy,90,2013-07-09 03:53:00